Probability
0 0 0 0 0 0 0 0 0 0 0 0 0 0 0 0 0 0 0 0 0 0 0 0 0 0 0 0 0 0 0 0 0 0 0 0 0 0 0 0 0 0 0
0 0 0 0 0 0 0 0 0 0 0 0 0 0 0 0 0 0 0 0 0 0 0 0 0 0 0 0 0 0 0 0 0 0 0 0 0 0 0 0 0 0 0
1 0 0 0 0 0 0 0 0 0 0 0 0 0 0 0 0 0 0 0 0 0 0 0 0 0 0 0 0 0 0 0 0 0 0 0 0 0 0 0 0 0 0
1 0 0 0 0 0 0 0 0 0 0 0 0 0 0 0 0 0 0 0 0 0 0 0 0 0 0 0 0 0 0 0 0 0 0 0 0 0 0 0 0 0 0
1 0 0 0 0 0 0 0 0 0 0 0 0 0 0 0 0 0 0 0 0 0 0 0 0 0 0 0 0 0 0 0 0 0 0 0 0 0 0 0 0 0 0
0 0 0 0 0 0 0 0 0 0 0 0 0 0 0 0 0 0 0 0 0 0 0 0 0 0 0 0 0 0 0 0 0 0 0 0 0 0 0 0 0 0 0
0 0 0 0 0 0 0 0 0 0 0 0 0 0 0 0 0 0 0 0 0 0 0 0 0 0 0 0 0 0 0 0 0 0 0 0 0 0 0 0 0 0 0
0 0 0 0 0 0 0 0 0 0 0 0 0 0 0 0 0 0 0 0 0 0 0 0 0 0 0 0 0 0 0 0 0 0 0 0 0 0 0 0 0 0 0
0 0 0 0 0 0 0 0 0 0 0 0 0 0 0 0 0 0 0 0 0 0 0 0 0 0 0 0 0 0 0 0 0 0 0 0 0 0 0 0 0 0 0
0 0 0 0 0 0 0 0 0 0 0 0 0 0 0 0 0 0 0 0 0 0 0 0 0 0 0 0 0 0 0 0 0 0 0 0 0 0 0 0 0 0 0
0 0 0 0 0 0 0 0 0 0 0 0 0 0 0 0 0 0 0 0 0 0 0 0 0 0 0 0 0 0 0 0 0 0 0 0 0 0 0 0 0 0 0
0 0 0 0 0 0 0 0 0 0 0 0 0 0 0 0 0 0 0 0 0 0 0 0 0 0 0 0 0 0 0 0 0 0 0 0 0 0 0 0 0 0 0
0 0 0 0 0 0 0 0 0 0 0 0 0 0 0 0 0 0 0 0 0 0 0 0 0 0 0 0 0 0 0 0 0 0 0 0 0 0 0 0 0 0 0
0 0 0 0 0 0 0 0 0 0 0 0 0 0 0 0 0 0 0 0 0 0 0 0 0 0 0 0 0 0 0 0 0 0 0 0 0 0 0 0 0 0 0
0 0 0 0 0 0 0 0 0 0 0 0 0 0 0 0 0 0 0 0 0 0 0 0 0 0 0 0 0 0 0 0 0 0 0 0 0 0 0 0 0 0 0
0 0 0 0 0 0 0 0 0 0 0 0 0 0 0 0 0 0 0 0 0 0 0 0 0 0 0 0 0 0 0 0 0 0 0 0 0 0 0 0 0 0 0
0 0 0 0 0 0 0 0 0 0 0 0 0 0 0 0 0 0 0 0 0 0 0 0 0 0 0 0 0 0 0 0 0 0 0 0 0 0 0 0 0 0 0
0 0 0 0 0 0 0 0 0 0 0 0 0 0 0 0 0 0 0 0 0 0 0 0 0 0 0 0 0 0 0 0 0 0 0 0 0 0 0 0 0 0 0
0 0 0 0 0 0 0 0 0 0 0 0 0 0 0 0 0 0 0 0 0 0 0 0 0 0 0 0 0 0 0 0 0 0 0 0 0 0 0 0 0 0 0
0 0 0 0 0 0 0 0 0 0 0 0 0 0 0 0 0 0 0 0 0 0 0 0 0 0 0 0 0 0 0 0 0 0 0 0 0 0 0 0 0 0 0
0 0 0 0 0 0 0 0 0 0 0 0 0 0 0 0 0 0 0 0 0 0 0 0 0 0 0 0 0 0 0 0 0 0 0 0 0 0 0 0 0 0 0
0 0 0 0 0 0 0 0 0 0 0 0 0 0 0 0 0 0 0 0 0 0 0 0 0 0 0 0 0 0 0 0 0 0 0 0 0 0 0 0 0 0 0
0 0 0 0 0 0 0 0 0 0 0 0 0 0 0 0 0 0 0 0 0 0 0 0 0 0 0 0 0 0 0 0 0 0 0 0 0 0 0 0 0 0 0
0 0 0 0 0 0 0 0 0 0 0 0 0 0 0 0 0 0 0 0 0 0 0 0 0 0 0 0 0 0 0 0 0 0 0 0 0 0 0 0 0 0 0
0 0 0 0 0 0 0 0 0 0 0 0 0 0 0 0 0 0 0 0 0 0 0 0 0 0 0 0 0 0 0 0 0 0 0 0 0 0 0 0 0 0 0
0 0 0 0 0 0 0 0 0 0 0 0 0 0 0 0 0 0 0 0 0 0 0 0 0 0 0 0 0 0 0 0 0 0 0 0 0 0 0 0 0 0 0
Wind_Speed
10 10 9 8 8 8 7 7 7 7 7 7 7 8 8 7 7 7 7 7 7 6 6 6 7 5 4 4 4 4 4 4 8 6 3 3 3 4 4 3 3 4 6
9 9 9 8 8 8 7 7 7 7 7 7 7 7 7 7 7 7 7 7 7 7 6 6 6 5 5 4 4 5 5 5 6 8 4 3 4 4 4 4 4 5 4
9 9 9 8 8 8 7 7 7 7 6 6 6 7 7 7 6 6 7 6 6 6 6 7 6 6 6 5 5 5 4 5 4 5 5 3 3 3 4 4 5 4 5
9 9 9 9 9 8 7 7 7 6 6 6 6 6 6 6 6 6 5 5 5 5 5 5 6 6 7 6 5 5 4 4 3 4 5 4 3 3 3 4 5 4 5
9 9 9 8 8 7 7 7 6 6 6 6 5 5 5 4 5 5 5 4 4 4 4 4 5 6 6 5 4 4 3 3 3 4 5 4 4 3 4 3 5 5 5
9 9 8 8 8 8 8 7 7 6 6 6 6 6 5 4 6 7 5 4 4 4 4 4 4 5 5 7 8 7 6 5 4 4 4 5 6 4 4 4 4 5 5
8 8 8 8 8 8 7 7 7 7 6 6 6 6 5 5 7 7 6 4 4 4 4 3 3 3 3 3 5 7 7 9 9 6 5 6 5 4 4 5 5 5 6
8 8 8 8 8 7 8 7 7 6 6 6 5 5 4 5 7 7 6 4 3 3 3 3 2 2 3 3 3 3 4 5 5 4 4 5 5 4 4 5 5 5 5
8 8 8 8 8 8 8 8 6 6 5 5 5 5 5 5 7 7 6 3 3 3 2 2 2 3 5 5 3 3 4 4 6 8 9 8 10 11 8 3 3 4 5
8 8 7 8 8 8 8 7 5 5 5 5 4 5 5 5 7 6 5 3 2 2 2 2 3 4 5 5 3 3 4 4 3 4 5 6 6 6 9 4 2 3 4
6 6 7 7 7 7 6 5 6 5 5 4 4 3 4 5 6 6 5 2 3 2 2 2 2 5 6 6 5 3 6 5 2 2 3 3 3 2 2 2 2 3 4
6 6 6 6 6 6 7 6 6 6 5 5 4 3 2 3 4 5 5 3 2 2 2 2 2 4 6 7 5 5 7 5 1 2 2 3 2 2 2 3 3 4 5
6 6 6 6 6 6 7 7 6 5 5 4 4 3 2 2 3 5 4 3 2 1 1 3 4 5 5 4 5 6 4 1 1 2 3 3 2 2 2 2 3 4 5
7 6 6 6 6 5 5 5 5 5 5 5 4 4 3 2 2 2 2 2 1 1 1 2 4 4 3 3 4 3 1 1 2 2 2 2 2 2 2 2 3 3 4
6 6 6 6 6 5 4 3 4 4 5 6 5 5 5 4 4 5 3 2 2 2 1 1 1 1 1 1 1 1 1 1 2 2 2 2 3 3 3 2 3 3 3
6 6 5 5 5 5 5 3 4 3 5 4 4 4 3 4 5 5 4 3 3 3 1 1 2 2 2 2 2 1 1 2 2 2 2 2 3 3 3 3 3 3 4
6 5 4 5 5 5 5 5 4 3 4 4 4 4 4 5 5 5 4 3 3 3 1 2 2 2 2 2 2 2 2 2 2 2 2 2 2 3 3 4 4 4 4
5 6 5 5 5 5 5 5 5 5 3 2 2 4 4 5 4 4 4 2 2 1 1 2 2 2 2 2 2 2 2 2 2 2 2 2 2 3 4 4 4 4 5
5 4 4 4 4 4 4 4 4 4 4 3 2 2 4 3 3 4 3 2 2 2 2 2 2 2 2 2 2 2 2 2 2 2 2 3 3 3 4 4 4 7 6
4 7 5 5 5 4 4 5 4 4 4 3 3 3 3 3 2 2 2 2 2 2 2 2 2 2 2 2 2 2 2 2 3 3 3 3 3 3 4 5 4 4 4
5 6 7 5 4 4 4 4 4 4 4 3 3 4 5 3 3 3 2 2 2 2 2 2 2 2 2 2 2 2 3 3 3 3 3 3 3 3 3 4 4 4 4
4 5 4 4 4 4 4 4 4 4 4 4 3 3 4 2 2 2 2 2 2 2 2 2 2 2 2 2 2 3 3 3 3 3 3 3 3 3 3 3 4 4 4
5 5 4 4 4 5 4 4 4 4 3 3 3 3 2 2 2 2 2 2 1 1 1 2 2 2 2 2 2 3 3 3 3 3 3 3 3 3 3 3 4 4 4
5 5 5 4 4 4 4 4 3 3 3 3 3 2 2 2 2 1 1 1 1 1 1 2 2 3 4 3 2 2 3 3 3 3 4 4 4 3 3 3 4 4 4
4 4 5 4 4 4 4 4 4 3 3 2 2 2 2 1 1 1 1 1 1 2 2 2 2 3 4 4 4 4 6 8 8 5 3 4 4 4 4 4 4 4 4
4 4 4 4 4 4 4 4 3 3 3 2 2 2 2 2 2 2 2 2 2 2 2 2 3 4 4 4 5 7 9 10 10 10 5 3 4 4 4 4 4 4 4
Wind_Direction
189 189 189 192 189 187 190 190 183 181 181 184 187 188 190 193 193 194 198 196 204 211 208 211 220 214 214 216 214 218 224 224 258 270 258 272 270 273 279 267 266 265 273
185 184 185 184 184 187 190 187 179 179 180 184 185 185 189 192 193 197 202 201 206 212 212 212 222 216 217 215 214 221 228 226 242 268 273 271 269 269 270 274 279 278 271
178 179 180 181 184 188 188 183 178 177 178 182 181 185 188 191 194 200 203 204 209 213 211 214 218 212 222 222 220 222 230 240 239 259 275 273 272 278 283 283 281 280 283
176 178 181 184 184 185 183 179 176 174 175 178 180 184 186 188 194 199 199 202 209 214 215 215 215 214 220 222 224 225 228 237 246 259 271 278 276 282 282 280 286 275 282
175 181 184 179 175 175 177 174 168 168 171 173 176 182 183 184 191 189 192 198 205 216 221 221 222 226 230 229 232 223 220 232 243 256 268 277 274 277 269 268 279 284 276
175 181 176 172 172 174 175 170 167 170 172 172 181 184 187 191 186 187 188 195 202 212 227 230 228 223 235 249 257 255 243 236 240 245 258 262 269 269 273 280 287 295 291
175 175 173 171 171 172 170 168 172 176 174 177 183 182 188 190 185 189 195 192 199 212 219 222 234 230 233 229 255 262 261 264 263 257 257 258 268 268 274 279 272 271 273
174 174 171 168 168 166 168 173 176 174 175 179 181 179 181 187 186 191 194 191 202 213 211 209 216 225 230 232 228 243 250 257 265 263 248 254 261 265 257 266 271 280 277
175 175 172 168 167 169 175 178 175 170 174 177 176 175 178 185 186 187 183 182 198 214 209 202 208 219 248 259 246 249 263 270 283 285 286 287 292 296 298 301 302 299 296
181 176 169 167 169 173 176 172 165 164 169 166 171 174 173 176 182 178 177 172 187 200 202 210 237 248 260 266 243 239 259 265 272 287 289 292 291 290 296 287 268 282 294
168 158 159 162 165 165 160 158 154 151 152 157 162 164 160 161 171 178 186 176 180 189 202 214 232 262 272 277 277 250 265 282 267 271 278 281 283 282 284 275 255 248 266
151 154 157 156 155 155 152 151 149 149 152 155 152 150 145 150 166 187 197 209 205 190 205 205 230 269 281 285 285 281 290 302 300 285 282 281 283 282 276 271 267 259 250
150 156 155 151 151 154 155 154 150 151 156 161 160 168 167 148 164 184 194 205 228 232 215 246 269 280 290 285 286 292 301 295 271 281 284 283 275 274 281 287 289 285 283
158 158 153 151 151 148 148 153 158 164 164 166 170 176 170 160 163 166 173 174 193 221 222 250 279 293 296 287 290 300 295 255 267 259 270 277 289 293 290 290 290 293 291
158 155 153 153 151 143 138 148 160 172 173 172 176 172 170 185 199 195 179 172 169 187 181 172 212 240 235 266 276 266 257 285 289 276 274 283 292 296 296 295 290 292 286
157 157 155 152 146 141 134 105 84 131 144 154 168 170 180 192 188 195 206 214 220 221 224 198 223 226 232 240 255 273 271 266 263 268 276 280 286 291 296 298 294 286 287
159 158 154 154 151 150 149 145 132 98 109 141 161 173 179 180 186 192 198 207 220 234 224 211 229 236 241 242 244 252 262 262 257 262 268 275 283 291 297 299 300 295 290
148 154 155 157 153 153 152 151 151 151 147 142 159 171 172 176 184 189 190 178 204 235 208 217 228 234 235 237 242 258 265 271 268 269 269 270 274 282 288 291 293 291 292
146 148 144 143 144 146 144 144 145 146 149 150 141 154 165 166 177 193 196 182 196 214 217 223 225 226 231 233 237 245 251 259 262 265 266 266 266 273 280 284 287 296 298
137 139 140 144 145 146 147 148 150 152 155 161 170 171 159 155 167 187 198 191 202 215 218 221 225 226 226 227 232 240 252 261 265 264 265 265 266 269 276 282 284 287 287
137 142 142 140 149 154 153 155 157 159 164 170 178 191 196 178 180 189 197 203 208 215 217 220 224 226 226 227 231 241 249 258 257 256 261 264 264 268 272 276 280 282 286
139 143 148 150 149 150 150 151 154 158 163 166 166 183 202 183 173 187 200 209 210 216 211 209 221 225 222 222 227 238 249 255 255 252 254 256 258 263 268 274 279 282 285
138 140 140 141 144 150 142 142 147 152 156 160 163 167 174 174 181 193 206 208 210 221 218 212 224 241 243 239 234 233 242 250 251 244 249 255 254 255 259 265 272 278 281
141 144 144 144 144 146 146 146 146 148 149 153 158 165 172 176 185 206 218 220 222 231 228 226 231 237 248 257 256 251 248 251 249 242 240 246 251 253 254 260 267 273 277
141 144 145 147 148 147 145 144 144 145 149 156 160 162 164 170 192 220 227 227 235 247 252 249 244 244 250 256 258 256 262 267 268 260 239 239 242 243 246 253 260 267 270
137 138 138 139 141 143 145 146 148 149 153 160 162 165 173 188 209 222 227 231 241 252 260 262 256 257 259 261 258 262 268 270 269 267 255 236 235 241 241 248 255 261 268